• en France
  • Liste des pays
  • À 7 jours
  • Température de l'eau
  • Carte satellitaire
  • Carte météo
  • Widgets météo
  • user-avatar
    Se connecter

    Météo par heure à Dundee

    Ce jour, 19 Octobre, Vendredi

    Heure Température Précipitation Vent Pression Humidité
    00:00 +5°C° 0 mm 4 m/s 757 mmHg 90%
    01:00 +5°C° 0 mm 4 m/s 756 mmHg 89%
    02:00 +5°C° 0 mm 4 m/s 756 mmHg 88%
    03:00 +6°C° 0 mm 5 m/s 756 mmHg 87%
    04:00 +6°C° 0 mm 5 m/s 755 mmHg 88%
    05:00 +6°C° 0 mm 5 m/s 755 mmHg 89%
    06:00 +6°C° 0 mm 5 m/s 755 mmHg 90%
    07:00 +5°C° 0 mm 6 m/s 755 mmHg 88%
    08:00 +7°C° 0 mm 6 m/s 755 mmHg 87%
    09:00 +7°C° 0 mm 6 m/s 754 mmHg 86%
    10:00 +8°C° 0 mm 6 m/s 755 mmHg 85%
    11:00 +9°C° 0 mm 6 m/s 755 mmHg 84%
    12:00 +10°C° 0 mm 6 m/s 755 mmHg 82%
    13:00 +10°C° 0 mm 6 m/s 755 mmHg 83%
    14:00 +10°C° 0 mm 6 m/s 755 mmHg 83%
    15:00 +12°C° 0 mm 5 m/s 756 mmHg 83%
    16:00 +9°C° 0 mm 5 m/s 756 mmHg 87%
    17:00 +8°C° 0 mm 4 m/s 756 mmHg 90%
    18:00 +8°C° 0 mm 3 m/s 757 mmHg 94%
    19:00 +8°C° 0 mm 3 m/s 757 mmHg 94%
    20:00 +7°C° 0 mm 3 m/s 758 mmHg 94%
    21:00 +7°C° 0 mm 3 m/s 758 mmHg 94%
    22:00 +7°C° 0 mm 3 m/s 758 mmHg 93%
    23:00 +7°C° 0 mm 3 m/s 758 mmHg 93%

    Demain, 20 Octobre, Samedi

    Heure Température Précipitation Vent Pression Humidité
    00:00 +7°C° 0 mm 3 m/s 758 mmHg 93%
    01:00 +7°C° 0 mm 3 m/s 758 mmHg 92%
    02:00 +8°C° 0 mm 3 m/s 758 mmHg 92%
    03:00 +8°C° 0 mm 3 m/s 758 mmHg 91%
    04:00 +9°C° 0 mm 3 m/s 758 mmHg 93%
    05:00 +9°C° 0 mm 3 m/s 758 mmHg 94%
    06:00 +8°C° 0 mm 4 m/s 758 mmHg 96%
    07:00 +10°C° 0.1 mm 4 m/s 758 mmHg 95%
    08:00 +11°C° 0.1 mm 4 m/s 758 mmHg 95%
    09:00 +10°C° 0.1 mm 5 m/s 758 mmHg 94%
    10:00 +12°C° 0 mm 5 m/s 758 mmHg 91%
    11:00 +13°C° 0 mm 6 m/s 758 mmHg 88%
    12:00 +14°C° 0 mm 7 m/s 758 mmHg 85%
    13:00 +14°C° 0 mm 7 m/s 758 mmHg 86%
    14:00 +14°C° 0 mm 7 m/s 757 mmHg 86%
    15:00 +15°C° 0 mm 7 m/s 757 mmHg 86%
    16:00 +14°C° 0 mm 7 m/s 757 mmHg 88%
    17:00 +14°C° 0 mm 6 m/s 757 mmHg 90%
    18:00 +13°C° 0 mm 6 m/s 757 mmHg 92%
    19:00 +13°C° 0 mm 6 m/s 757 mmHg 93%
    20:00 +14°C° 0 mm 5 m/s 757 mmHg 93%
    21:00 +14°C° 0 mm 5 m/s 757 mmHg 94%
    22:00 +14°C° 0 mm 5 m/s 756 mmHg 94%
    23:00 +14°C° 0 mm 5 m/s 756 mmHg 95%

    Après-demain, 21 Octobre, Dimanche

    Heure Température Précipitation Vent Pression Humidité
    00:00 +14°C° 0 mm 5 m/s 756 mmHg 95%
    01:00 +14°C° 0 mm 5 m/s 755 mmHg 95%
    02:00 +14°C° 0 mm 6 m/s 755 mmHg 95%
    03:00 +14°C° 0 mm 6 m/s 755 mmHg 95%
    04:00 +14°C° 0.1 mm 6 m/s 754 mmHg 94%
    05:00 +14°C° 0.1 mm 6 m/s 754 mmHg 93%
    06:00 +14°C° 0.1 mm 6 m/s 754 mmHg 92%
    07:00 +14°C° 0.3 mm 6 m/s 754 mmHg 91%
    08:00 +13°C° 0.3 mm 6 m/s 754 mmHg 89%
    09:00 +13°C° 0.3 mm 6 m/s 754 mmHg 88%
    10:00 +11°C° 0.2 mm 6 m/s 755 mmHg 87%
    11:00 +10°C° 0.2 mm 6 m/s 755 mmHg 86%
    12:00 +9°C° 0.2 mm 7 m/s 756 mmHg 85%
    13:00 +9°C° 0.1 mm 7 m/s 756 mmHg 79%
    14:00 +9°C° 0.1 mm 7 m/s 757 mmHg 74%
    15:00 +8°C° 0.1 mm 7 m/s 757 mmHg 69%
    16:00 +6°C° 0 mm 7 m/s 758 mmHg 71%
    17:00 +5°C° 0 mm 7 m/s 758 mmHg 74%
    18:00 +4°C° 0 mm 6 m/s 759 mmHg 76%
    19:00 +4°C° 0 mm 6 m/s 760 mmHg 77%
    20:00 +4°C° 0 mm 6 m/s 760 mmHg 78%
    21:00 +3°C° 0 mm 6 m/s 761 mmHg 79%
    22:00 +3°C° 0 mm 6 m/s 761 mmHg 78%
    23:00 +3°C° 0 mm 6 m/s 761 mmHg 78%

    22 Octobre, Lundi

    Heure Température Précipitation Vent Pression Humidité
    00:00 +3°C° 0 mm 6 m/s 762 mmHg 77%
    01:00 +3°C° 0 mm 6 m/s 762 mmHg 78%
    02:00 +3°C° 0 mm 6 m/s 762 mmHg 78%
    03:00 +3°C° 0 mm 6 m/s 762 mmHg 79%
    04:00 +3°C° 0 mm 6 m/s 763 mmHg 79%
    05:00 +3°C° 0 mm 6 m/s 763 mmHg 80%
    06:00 +3°C° 0 mm 6 m/s 763 mmHg 80%
    07:00 +4°C° 0 mm 6 m/s 763 mmHg 79%
    08:00 +5°C° 0 mm 7 m/s 763 mmHg 78%
    09:00 +6°C° 0 mm 7 m/s 763 mmHg 77%
    10:00 +7°C° 0 mm 8 m/s 763 mmHg 76%
    11:00 +7°C° 0 mm 8 m/s 763 mmHg 76%
    12:00 +9°C° 0 mm 8 m/s 763 mmHg 75%
    13:00 +9°C° 0 mm 8 m/s 763 mmHg 76%
    14:00 +9°C° 0 mm 8 m/s 762 mmHg 76%
    15:00 +8°C° 0 mm 9 m/s 762 mmHg 77%
    16:00 +9°C° 0 mm 8 m/s 762 mmHg 78%
    17:00 +9°C° 0 mm 8 m/s 762 mmHg 79%
    18:00 +9°C° 0 mm 8 m/s 762 mmHg 80%
    19:00 +9°C° 0 mm 8 m/s 762 mmHg 81%
    20:00 +9°C° 0 mm 8 m/s 762 mmHg 81%
    21:00 +9°C° 0 mm 8 m/s 763 mmHg 82%
    22:00 +9°C° 0 mm 8 m/s 763 mmHg 81%
    23:00 +9°C° 0 mm 8 m/s 763 mmHg 80%

    23 Octobre, Mardi

    Heure Température Précipitation Vent Pression Humidité
    00:00 +9°C° 0 mm 8 m/s 763 mmHg 78%
    01:00 +9°C° 0 mm 7 m/s 763 mmHg 79%
    02:00 +9°C° 0 mm 7 m/s 762 mmHg 80%
    03:00 +10°C° 0 mm 7 m/s 762 mmHg 81%
    04:00 +9°C° 0 mm 7 m/s 762 mmHg 82%
    05:00 +9°C° 0 mm 7 m/s 762 mmHg 83%
    06:00 +9°C° 0 mm 8 m/s 762 mmHg 84%
    07:00 +9°C° 0 mm 8 m/s 762 mmHg 82%
    08:00 +9°C° 0 mm 8 m/s 762 mmHg 79%
    09:00 +9°C° 0 mm 8 m/s 762 mmHg 77%
    10:00 +10°C° 0 mm 8 m/s 761 mmHg 75%
    11:00 +11°C° 0 mm 8 m/s 761 mmHg 74%
    12:00 +12°C° 0 mm 8 m/s 761 mmHg 73%
    13:00 +12°C° 0 mm 8 m/s 761 mmHg 74%
    14:00 +13°C° 0 mm 8 m/s 761 mmHg 74%
    15:00 +14°C° 0 mm 7 m/s 760 mmHg 75%
    16:00 +13°C° 0 mm 8 m/s 760 mmHg 78%
    17:00 +12°C° 0 mm 8 m/s 760 mmHg 80%
    18:00 +12°C° 0 mm 8 m/s 760 mmHg 83%
    19:00 +12°C° 0 mm 8 m/s 761 mmHg 83%
    20:00 +12°C° 0 mm 8 m/s 761 mmHg 84%
    21:00 +12°C° 0 mm 8 m/s 761 mmHg 84%
    22:00 +12°C° 0 mm 8 m/s 761 mmHg 83%
    23:00 +12°C° 0 mm 8 m/s 761 mmHg 83%

    24 Octobre, Mercredi

    Heure Température Précipitation Vent Pression Humidité
    00:00 +12°C° 0 mm 8 m/s 761 mmHg 82%
    01:00 +12°C° 0 mm 7 m/s 761 mmHg 82%
    02:00 +12°C° 0 mm 7 m/s 761 mmHg 82%
    03:00 +12°C° 0 mm 7 m/s 761 mmHg 82%
    04:00 +11°C° 0 mm 7 m/s 761 mmHg 84%
    05:00 +11°C° 0 mm 6 m/s 761 mmHg 85%
    06:00 +11°C° 0 mm 6 m/s 761 mmHg 86%
    07:00 +11°C° 0 mm 6 m/s 762 mmHg 85%
    08:00 +11°C° 0 mm 6 m/s 762 mmHg 84%
    09:00 +11°C° 0 mm 6 m/s 762 mmHg 83%
    10:00 +12°C° 0 mm 5 m/s 763 mmHg 79%
    11:00 +12°C° 0 mm 5 m/s 763 mmHg 75%
    12:00 +13°C° 0 mm 5 m/s 763 mmHg 71%
    13:00 +12°C° 0 mm 5 m/s 763 mmHg 70%
    14:00 +12°C° 0 mm 5 m/s 762 mmHg 70%
    15:00 +12°C° 0 mm 5 m/s 762 mmHg 70%
    16:00 +10°C° 0 mm 5 m/s 762 mmHg 76%
    17:00 +8°C° 0 mm 4 m/s 762 mmHg 81%
    18:00 +7°C° 0 mm 4 m/s 762 mmHg 87%
    19:00 +6°C° 0 mm 4 m/s 762 mmHg 89%
    20:00 +6°C° 0 mm 4 m/s 762 mmHg 91%
    21:00 +5°C° 0 mm 4 m/s 762 mmHg 93%
    22:00 +5°C° 0 mm 4 m/s 762 mmHg 93%
    23:00 +5°C° 0 mm 4 m/s 762 mmHg 94%
    Voir plus